Terminal Aerodrome Forecast
Issued by NWS

Home | Current Version | Previous Version | Graphics & Text | Print | Product List | Glossary On
Versions: 1 2 3 4 5 6 7 8 9 10 11 12 13 14 15 16 17 18 19 20 21 22 23 24 25 26 27 28
000
FTUS45 KGGW 202300
TAFOLF
TAF
KOLF 202320Z 2100/2124 29011KT P6SM BKN100
     FM210300 VRB05KT P6SM SCT100
     FM211800 27007KT P6SM BKN110=

USA.gov is the U.S. government's official web portal to all federal, state and local government web resources and services.